sat.trackr.live / text

‹ back to catalog

STARLINK-11412 [DTC]

NORAD 63062 · 2025-035L

PAYLOAD ACTIVE UNKNOWN

§ Identity

Operator
Country
US
Launch date
2025-02-21
Launch site
AFETR
Launch vehicle
Mass (kg)
RCS (m²)

Purposes: comms

External: N2YO · Heavens-Above · Gunter

§ Orbital elements

Epoch: 2026-05-24T19:36:39.156768Z

Period
91.67 min
Inclination
42.9978°
Eccentricity
0.0002088
Mean motion
15.70874537 rev/d
Perigee alt
355.0 km
Apogee alt
357.8 km
Semi-major
6,734.5 km
B*
1.3641e-3
RAAN
276.4754°
Arg perigee
246.4499°
Mean anomaly
113.6150°
Rev number
7,319

§ Raw data

STARLINK-11412 [DTC]1 63062U 25035L   26144.81711987  .00178654  00000+0  13641-2 0  99982 63062  42.9978 276.4754 0002088 246.4499 113.6150 15.70874537 73193

JSON: /api/v1/satellites/63062 · /tle

For live sub-satellite position, see the globe view (requires WebGL).

§ Visibility from observer

Set your observer location to see the next 7 days of passes ≥ 10°. The values pass through the URL so the page stays shareable.

No JS? Fill the form by hand. The geolocation button needs JavaScript.